Weather History for Aberdeen, SD

Change the Weather History Date:

Wednesday, July 17, 2013

  Actual Average Record
Temperature  
Mean Temperature 77 °F 72 °F  
Max Temperature 87 °F 84 °F 111 °F (1936)
Min Temperature 66 °F 59 °F 44 °F (1895)
Degree Days  
Heating Degree Days 0 0  
Month to date heating degree days 0 8  
Since 1 June heating degree days 81 84  
Since 1 July heating degree days 0 8  
Cooling Degree Days 12 7  
Month to date cooling degree days 146 110  
Year to date cooling degree days 263 225  
Since 1 June cooling degree days 242 202  
Growing Degree Days 26 (Base 50)    
Moisture  
Dew Point 67 °F    
Average Humidity 75    
Maximum Humidity 100    
Minimum Humidity 50    
Precipitation  
Precipitation 0.00 in 0.10 in 3.09 in (1947)
Month to date precipitation 2.35 1.78  
Year to date precipitation 13.07 12.62  
Sea Level Pressure  
Sea Level Pressure 30.11 in    
Wind  
Wind Speed 10 mph (South)    
Max Wind Speed 18 mph    
Max Gust Speed 25 mph    
Visibility 10 miles    
Events      
T = Trace of Precipitation, MM = Missing Value Source: NWS Daily Summary

Daily Weather History Graph

Daily Weather History Graph

Search for Another Location

Airport:

Trip Planner

Search our weather history database for the weather conditions in past years. The results will help you decide how hot, cold, wet, or windy it might be!

Date:

Astronomy

Jul. 17, 2013 Rise Set
Actual Time 6:01 AM CDT 9:17 PM CDT
Civil Twilight 5:25 AM CDT 9:53 PM CDT
Nautical Twilight 4:38 AM CDT 10:39 PM CDT
Astronomical Twilight 3:40 AM CDT 11:37 PM CDT
Moon 4:04 PM CDT (7/17) 1:15 AM CDT (7/17)
Length of Visible Light 16h 27m
Length of Day
15h 15m
Waxing Gibbous, 67% of the Moon is Illuminated
Jul 17
Waxing Gibbous
Jul 22
Full
Jul 29
Last Quarter
Aug 6
New
Aug 14
First Quarter

Hourly Weather History & Observations

Time (CDT) Temp. Heat Index Dew Point Humidity Pressure Visibility Wind Dir Wind Speed Gust Speed Precip Events Conditions
12:53 AM 68.0 °F - 66.0 °F 93% 30.15 in 10.0 mi South 6.9 mph - N/A   Clear
1:53 AM 68.0 °F - 64.9 °F 90% 30.14 in 10.0 mi South 6.9 mph - N/A   Clear
2:53 AM 66.9 °F - 64.9 °F 93% 30.14 in 10.0 mi SSE 5.8 mph - N/A   Clear
3:53 AM 66.9 °F - 66.0 °F 97% 30.14 in 10.0 mi South 5.8 mph - N/A   Partly Cloudy
4:53 AM 68.0 °F - 64.9 °F 90% 30.14 in 10.0 mi South 4.6 mph - N/A   Clear
5:53 AM 66.9 °F - 64.0 °F 90% 30.14 in 10.0 mi South 6.9 mph - N/A   Partly Cloudy
6:53 AM 66.9 °F - 64.9 °F 93% 30.16 in 10.0 mi South 3.5 mph - N/A   Scattered Clouds
7:53 AM 71.1 °F - 64.9 °F 81% 30.16 in 10.0 mi South 9.2 mph - N/A   Clear
8:53 AM 75.0 °F - 66.0 °F 73% 30.17 in 10.0 mi South 11.5 mph - N/A   Clear
9:53 AM 78.1 °F - 66.9 °F 68% 30.17 in 10.0 mi South 11.5 mph - N/A   Clear
10:53 AM 81.0 °F 83.8 °F 68.0 °F 65% 30.16 in 10.0 mi South 8.1 mph - N/A   Clear
11:53 AM 82.0 °F 84.9 °F 68.0 °F 62% 30.16 in 10.0 mi South 11.5 mph - N/A   Clear
12:53 PM 84.0 °F 87.0 °F 68.0 °F 58% 30.15 in 10.0 mi South 11.5 mph - N/A   Clear
1:53 PM 86.0 °F 89.4 °F 68.0 °F 55% 30.12 in 10.0 mi South 11.5 mph 19.6 mph N/A   Clear
2:53 PM 86.0 °F 88.8 °F 66.9 °F 53% 30.11 in 10.0 mi South 16.1 mph 23.0 mph N/A   Clear
3:53 PM 87.1 °F 89.9 °F 66.9 °F 51% 30.09 in 10.0 mi South 16.1 mph - N/A   Clear
4:53 PM 87.1 °F 89.2 °F 66.0 °F 49% 30.08 in 10.0 mi SSW 13.8 mph 21.9 mph N/A   Clear
5:53 PM 87.1 °F 89.9 °F 66.9 °F 51% 30.06 in 10.0 mi South 15.0 mph 23.0 mph N/A   Clear
6:53 PM 86.0 °F 89.4 °F 68.0 °F 55% 30.05 in 10.0 mi South 10.4 mph - N/A   Clear
7:53 PM 82.9 °F 87.0 °F 70.0 °F 65% 30.04 in 10.0 mi SSE 9.2 mph - N/A   Clear
8:53 PM 78.1 °F - 69.1 °F 74% 30.02 in 10.0 mi SSE 8.1 mph - N/A   Clear
9:53 PM 75.9 °F - 68.0 °F 76% 30.02 in 10.0 mi SSE 9.2 mph - N/A   Clear
10:53 PM 75.9 °F - 68.0 °F 76% 30.02 in 10.0 mi SSE 12.7 mph - N/A   Clear
11:53 PM 75.0 °F - 68.0 °F 79% 30.00 in 10.0 mi SSE 11.5 mph - N/A   Clear